| time (UTC) | temp C | wind direction | speed KPH | gust KPH | rain 1hr cm | rain 24hr cm | rain mn cm | humidity % | barometer mb |
| 20260504160224 | 21 | 199 | 19.3 | 32.2 | 0.00 | 0.51 | 0.51 | 63 | 1006.2 |
| 20260504150722 | 20 | 209 | 20.9 | 33.8 | 0.00 | 0.51 | 0.51 | 65 | 1006.2 |
| 20260504150225 | 20 | 208 | 20.9 | 33.8 | 0.00 | 0.51 | 0.51 | 68 | 1006.2 |
| 20260504141222 | 19 | 203 | 19.3 | 35.4 | 0.00 | 0.51 | 0.51 | 72 | 1006.4 |
| 20260504140723 | 18 | 204 | 19.3 | 32.2 | 0.00 | 0.51 | 0.51 | 74 | 1006.6 |
| 20260504140224 | 18 | 204 | 20.9 | 35.4 | 0.00 | 0.51 | 0.51 | 73 | 1006.6 |
| 20260504130722 | 16 | 195 | 16.1 | 29.0 | 0.00 | 0.51 | 0.51 | 81 | 1007.0 |
| 20260504130224 | 16 | 193 | 16.1 | 27.4 | 0.00 | 0.51 | 0.51 | 81 | 1007.1 |
| 20260504120224 | 15 | 184 | 16.1 | 24.1 | 0.00 | 0.51 | 0.51 | 84 | 1007.3 |
| 20260504110224 | 14 | 183 | 14.5 | 22.5 | 0.00 | 0.53 | 0.51 | 86 | 1007.0 |
| 20260504100223 | 13 | 162 | 3.2 | 11.3 | 0.03 | 0.53 | 0.51 | 87 | 1007.3 |
| 20260504081724 | 13 | 185 | 8.0 | 16.1 | 0.20 | 0.51 | 0.48 | 87 | 1007.7 |
| 20260504080722 | 13 | 186 | 9.7 | 19.3 | 0.23 | 0.51 | 0.48 | 87 | 1007.4 |
| 20260504080223 | 13 | 190 | 8.0 | 19.3 | 0.23 | 0.51 | 0.48 | 87 | 1007.7 |
| 20260504070224 | 15 | 61 | 9.7 | 20.9 | 0.25 | 0.28 | 0.25 | 81 | 1007.1 |
| 20260504060223 | 16 | 229 | 6.4 | 17.7 | 0.00 | 0.03 | 0.00 | 70 | 1008.7 |
| 20260504050223 | 15 | 186 | 3.2 | 9.7 | 0.00 | 0.03 | 0.03 | 67 | 1007.7 |
| 20260504044723 | 16 | 188 | 4.8 | 11.3 | 0.00 | 0.03 | 0.03 | 66 | 1008.1 |
| 20260504044222 | 16 | 189 | 3.2 | 11.3 | 0.00 | 0.03 | 0.03 | 65 | 1008.3 |
| 20260504043722 | 16 | 185 | 1.6 | 6.4 | 0.00 | 0.03 | 0.03 | 64 | 1008.3 |
| 20260504043224 | 16 | 185 | 0.0 | 6.4 | 0.00 | 0.03 | 0.03 | 63 | 1008.4 |
| 20260504042722 | 16 | 186 | 0.0 | 4.8 | 0.00 | 0.03 | 0.03 | 62 | 1008.4 |
| 20260504042222 | 16 | 205 | 0.0 | 3.2 | 0.00 | 0.03 | 0.03 | 61 | 1008.5 |
| 20260504041723 | 17 | 251 | 0.0 | 6.4 | 0.00 | 0.03 | 0.03 | 61 | 1008.4 |
| 20260504041222 | 17 | 228 | 0.0 | 8.0 | 0.00 | 0.03 | 0.03 | 60 | 1008.6 |
| 20260504040722 | 17 | 209 | 1.6 | 9.7 | 0.00 | 0.03 | 0.03 | 60 | 1008.7 |
| 20260504040223 | 17 | 192 | 6.4 | 19.3 | 0.00 | 0.03 | 0.03 | 60 | 1008.6 |
| 20260504035722 | 17 | 187 | 11.3 | 25.7 | 0.00 | 0.03 | 0.03 | 60 | 1008.5 |
| 20260504035221 | 17 | 186 | 14.5 | 25.7 | 0.00 | 0.03 | 0.03 | 60 | 1008.6 |
| 20260504034724 | 17 | 182 | 12.9 | 20.9 | 0.00 | 0.03 | 0.03 | 60 | 1008.5 |
| 20260504034221 | 17 | 179 | 14.5 | 22.5 | 0.00 | 0.03 | 0.03 | 59 | 1008.6 |
| 20260504033223 | 17 | 178 | 12.9 | 22.5 | 0.00 | 0.03 | 0.03 | 59 | 1008.8 |
| 20260504032222 | 17 | 177 | 14.5 | 29.0 | 0.00 | 0.03 | 0.03 | 58 | 1008.9 |
| 20260504031724 | 17 | 176 | 14.5 | 24.1 | 0.00 | 0.03 | 0.03 | 58 | 1008.8 |
| 20260504031221 | 17 | 179 | 14.5 | 24.1 | 0.00 | 0.03 | 0.03 | 58 | 1008.7 |
| 20260504030722 | 17 | 183 | 16.1 | 29.0 | 0.00 | 0.03 | 0.03 | 58 | 1008.7 |
| 20260504030223 | 17 | 183 | 17.7 | 30.6 | 0.00 | 0.03 | 0.03 | 57 | 1008.6 |
| 20260504025722 | 17 | 185 | 17.7 | 30.6 | 0.00 | 0.03 | 0.03 | 58 | 1008.3 |
| 20260504025222 | 17 | 187 | 17.7 | 29.0 | 0.00 | 0.03 | 0.03 | 58 | 1008.3 |
| 20260504024723 | 17 | 185 | 19.3 | 33.8 | 0.00 | 0.03 | 0.03 | 57 | 1008.2 |
| 20260504024222 | 17 | 185 | 17.7 | 33.8 | 0.00 | 0.03 | 0.03 | 58 | 1008.1 |
| 20260504023223 | 17 | 186 | 17.7 | 30.6 | 0.00 | 0.03 | 0.03 | 57 | 1008.2 |
| 20260504022222 | 17 | 186 | 16.1 | 24.1 | 0.00 | 0.03 | 0.03 | 57 | 1008.5 |
| 20260504021723 | 17 | 183 | 16.1 | 25.7 | 0.00 | 0.03 | 0.03 | 57 | 1008.4 |
| 20260504021222 | 17 | 181 | 16.1 | 25.7 | 0.00 | 0.03 | 0.03 | 57 | 1008.4 |
| 20260504020722 | 17 | 182 | 16.1 | 25.7 | 0.00 | 0.03 | 0.03 | 57 | 1008.5 |
| 20260504020223 | 17 | 182 | 14.5 | 25.7 | 0.00 | 0.03 | 0.03 | 57 | 1008.4 |
| 20260504015722 | 17 | 182 | 14.5 | 27.4 | 0.00 | 0.03 | 0.03 | 56 | 1008.5 |
| 20260504015221 | 17 | 183 | 14.5 | 29.0 | 0.00 | 0.03 | 0.03 | 56 | 1008.5 |
| 20260504014724 | 17 | 182 | 16.1 | 29.0 | 0.00 | 0.03 | 0.03 | 56 | 1008.4 |
| 20260504014221 | 17 | 182 | 16.1 | 27.4 | 0.00 | 0.03 | 0.03 | 56 | 1008.5 |
| 20260504013722 | 17 | 181 | 16.1 | 27.4 | 0.00 | 0.03 | 0.03 | 56 | 1008.4 |
| 20260504013223 | 18 | 181 | 17.7 | 32.2 | 0.00 | 0.03 | 0.03 | 56 | 1008.3 |
| 20260504012722 | 18 | 184 | 16.1 | 32.2 | 0.00 | 0.03 | 0.03 | 56 | 1008.2 |
| 20260504012221 | 18 | 184 | 16.1 | 27.4 | 0.00 | 0.03 | 0.03 | 56 | 1008.2 |
| 20260504011221 | 18 | 182 | 14.5 | 25.7 | 0.00 | 0.03 | 0.03 | 55 | 1008.5 |
| 20260504010722 | 18 | 182 | 16.1 | 27.4 | 0.00 | 0.03 | 0.03 | 55 | 1008.3 |
| 20260504010223 | 18 | 182 | 16.1 | 27.4 | 0.00 | 0.03 | 0.03 | 55 | 1008.2 |
| 20260504005222 | 18 | 186 | 16.1 | 27.4 | 0.00 | 0.03 | 0.03 | 54 | 1008.4 |
| 20260504004723 | 18 | 186 | 17.7 | 27.4 | 0.00 | 0.03 | 0.03 | 54 | 1008.3 |
| 20260504004222 | 18 | 184 | 17.7 | 27.4 | 0.00 | 0.03 | 0.03 | 54 | 1008.4 |
| 20260504003722 | 18 | 186 | 16.1 | 29.0 | 0.00 | 0.03 | 0.03 | 53 | 1008.5 |
| 20260504003223 | 18 | 187 | 16.1 | 29.0 | 0.00 | 0.03 | 0.03 | 53 | 1008.4 |
| 20260504002221 | 18 | 184 | 19.3 | 32.2 | 0.00 | 0.03 | 0.03 | 52 | 1008.6 |
| 20260504001724 | 19 | 186 | 19.3 | 30.6 | 0.00 | 0.03 | 0.03 | 53 | 1008.6 |
| 20260504001221 | 19 | 183 | 17.7 | 33.8 | 0.00 | 0.03 | 0.03 | 53 | 1008.5 |
| 20260504000722 | 19 | 179 | 17.7 | 33.8 | 0.00 | 0.03 | 0.03 | 52 | 1008.5 |
| 20260504000223 | 19 | 183 | 17.7 | 25.7 | 0.00 | 0.03 | 0.03 | 51 | 1008.6 |
| 20260503235722 | 19 | 186 | 16.1 | 30.6 | 0.00 | 0.03 | 0.03 | 52 | 1008.8 |
| 20260503235222 | 20 | 189 | 14.5 | 30.6 | 0.00 | 0.03 | 0.03 | 52 | 1009.1 |
| 20260503234723 | 20 | 191 | 14.5 | 27.4 | 0.00 | 0.03 | 0.03 | 52 | 1009.2 |
| 20260503233722 | 20 | 192 | 19.3 | 37.0 | 0.00 | 0.03 | 0.03 | 52 | 1009.2 |
| 20260503232722 | 20 | 197 | 19.3 | 33.8 | 0.00 | 0.03 | 0.03 | 50 | 1009.3 |
| 20260503231723 | 20 | 201 | 19.3 | 32.2 | 0.00 | 0.03 | 0.03 | 51 | 1009.1 |
| 20260503231222 | 20 | 203 | 19.3 | 30.6 | 0.00 | 0.03 | 0.03 | 50 | 1009.3 |
| 20260503230722 | 20 | 202 | 19.3 | 41.8 | 0.00 | 0.03 | 0.03 | 50 | 1009.4 |
| 20260503230223 | 20 | 198 | 20.9 | 41.8 | 0.00 | 0.03 | 0.03 | 49 | 1009.6 |
| 20260503225722 | 20 | 198 | 19.3 | 33.8 | 0.00 | 0.03 | 0.03 | 50 | 1009.6 |
| 20260503225222 | 20 | 202 | 20.9 | 35.4 | 0.00 | 0.03 | 0.03 | 51 | 1009.5 |
| 20260503224723 | 20 | 202 | 24.1 | 38.6 | 0.00 | 0.03 | 0.03 | 48 | 1009.6 |
| 20260503223723 | 20 | 196 | 20.9 | 38.6 | 0.00 | 0.03 | 0.03 | 48 | 1009.5 |
| 20260503223223 | 20 | 200 | 20.9 | 38.6 | 0.00 | 0.03 | 0.03 | 49 | 1009.2 |
| 20260503222721 | 20 | 199 | 24.1 | 43.5 | 0.00 | 0.03 | 0.03 | 49 | 1009.2 |
| 20260503222222 | 20 | 197 | 24.1 | 43.5 | 0.00 | 0.03 | 0.03 | 48 | 1009.2 |
| 20260503221723 | 20 | 196 | 25.7 | 46.7 | 0.00 | 0.03 | 0.03 | 50 | 1009.2 |
| 20260503221221 | 20 | 192 | 27.4 | 46.7 | 0.00 | 0.03 | 0.03 | 50 | 1009.3 |
| 20260503220721 | 20 | 194 | 25.7 | 43.5 | 0.00 | 0.03 | 0.03 | 48 | 1009.4 |
| 20260503220224 | 20 | 194 | 25.7 | 53.1 | 0.00 | 0.03 | 0.03 | 48 | 1009.3 |
| 20260503215222 | 20 | 190 | 22.5 | 40.2 | 0.00 | 0.03 | 0.03 | 49 | 1009.4 |
| 20260503214723 | 20 | 197 | 22.5 | 40.2 | 0.00 | 0.03 | 0.03 | 50 | 1009.5 |
| 20260503214222 | 20 | 201 | 24.1 | 40.2 | 0.00 | 0.03 | 0.03 | 48 | 1009.4 |
| 20260503213722 | 20 | 198 | 25.7 | 51.5 | 0.00 | 0.03 | 0.03 | 50 | 1009.5 |
| 20260503212722 | 20 | 189 | 25.7 | 43.5 | 0.00 | 0.03 | 0.03 | 51 | 1009.8 |
| 20260503212221 | 20 | 193 | 24.1 | 38.6 | 0.00 | 0.03 | 0.03 | 51 | 1009.8 |
| 20260503211723 | 20 | 200 | 24.1 | 37.0 | 0.00 | 0.03 | 0.03 | 50 | 1009.9 |
| 20260503211222 | 20 | 202 | 24.1 | 38.6 | 0.00 | 0.03 | 0.03 | 48 | 1010.0 |
| 20260503210722 | 20 | 198 | 27.4 | 43.5 | 0.00 | 0.03 | 0.03 | 49 | 1010.2 |
| 20260503210224 | 19 | 195 | 29.0 | 51.5 | 0.00 | 0.03 | 0.03 | 49 | 1010.3 |
| 20260503205721 | 19 | 193 | 30.6 | 51.5 | 0.00 | 0.03 | 0.03 | 47 | 1010.3 |
| 20260503205221 | 19 | 193 | 29.0 | 45.1 | 0.00 | 0.03 | 0.03 | 49 | 1010.4 |
| 20260503204221 | 19 | 200 | 29.0 | 48.3 | 0.00 | 0.03 | 0.03 | 48 | 1010.8 |
| 20260503203721 | 19 | 195 | 27.4 | 48.3 | 0.00 | 0.03 | 0.03 | 49 | 1010.7 |
| 20260503202721 | 19 | 187 | 25.7 | 48.3 | 0.00 | 0.03 | 0.03 | 53 | 1011.2 |
| 20260503201723 | 19 | 205 | 22.5 | 35.4 | 0.00 | 0.03 | 0.03 | 52 | 1011.7 |
| 20260503201222 | 19 | 209 | 24.1 | 41.8 | 0.00 | 0.03 | 0.03 | 51 | 1011.9 |
| 20260503200721 | 18 | 204 | 25.7 | 41.8 | 0.00 | 0.03 | 0.03 | 49 | 1011.9 |
| 20260503200223 | 19 | 201 | 22.5 | 37.0 | 0.00 | 0.03 | 0.03 | 49 | 1012.0 |
| 20260503195721 | 18 | 207 | 20.9 | 35.4 | 0.00 | 0.03 | 0.03 | 52 | 1012.0 |
| 20260503195221 | 18 | 207 | 24.1 | 40.2 | 0.00 | 0.03 | 0.03 | 51 | 1012.1 |
| 20260503194722 | 18 | 202 | 25.7 | 54.7 | 0.00 | 0.03 | 0.03 | 50 | 1012.2 |
| 20260503194221 | 18 | 197 | 25.7 | 54.7 | 0.00 | 0.03 | 0.03 | 51 | 1012.5 |
| 20260503193223 | 18 | 209 | 27.4 | 48.3 | 0.00 | 0.03 | 0.03 | 50 | 1012.6 |
| 20260503192721 | 18 | 206 | 25.7 | 48.3 | 0.00 | 0.03 | 0.03 | 48 | 1012.9 |
| 20260503192223 | 18 | 201 | 25.7 | 46.7 | 0.00 | 0.03 | 0.03 | 49 | 1013.0 |
| 20260503191723 | 18 | 206 | 25.7 | 53.1 | 0.00 | 0.03 | 0.03 | 53 | 1013.1 |
| 20260503191221 | 18 | 215 | 27.4 | 53.1 | 0.00 | 0.03 | 0.03 | 52 | 1013.2 |
| 20260503190223 | 18 | 217 | 22.5 | 46.7 | 0.00 | 0.03 | 0.03 | 52 | 1013.5 |
| 20260503185722 | 18 | 217 | 24.1 | 46.7 | 0.00 | 0.03 | 0.03 | 52 | 1013.6 |
| 20260503185221 | 18 | 212 | 24.1 | 41.8 | 0.00 | 0.03 | 0.03 | 50 | 1013.8 |
| 20260503184722 | 17 | 207 | 24.1 | 43.5 | 0.00 | 0.03 | 0.03 | 52 | 1013.8 |
| 20260503184221 | 17 | 208 | 24.1 | 43.5 | 0.00 | 0.03 | 0.03 | 51 | 1014.0 |
| 20260503183721 | 17 | 214 | 22.5 | 37.0 | 0.00 | 0.03 | 0.03 | 54 | 1014.1 |
| 20260503183223 | 17 | 211 | 24.1 | 40.2 | 0.00 | 0.03 | 0.03 | 53 | 1014.1 |
| 20260503182721 | 17 | 200 | 29.0 | 46.7 | 0.00 | 0.03 | 0.03 | 53 | 1014.1 |
| 20260503182221 | 17 | 192 | 29.0 | 46.7 | 0.00 | 0.03 | 0.03 | 53 | 1014.3 |
| 20260503181723 | 17 | 192 | 27.4 | 45.1 | 0.00 | 0.03 | 0.03 | 57 | 1014.4 |
| 20260503181221 | 17 | 199 | 25.7 | 45.1 | 0.00 | 0.03 | 0.03 | 56 | 1014.4 |
| 20260503180721 | 17 | 207 | 25.7 | 56.3 | 0.00 | 0.03 | 0.03 | 56 | 1014.6 |
| 20260503180223 | 17 | 204 | 25.7 | 56.3 | 0.00 | 0.03 | 0.03 | 56 | 1014.8 |
| 20260503175721 | 17 | 198 | 24.1 | 40.2 | 0.00 | 0.03 | 0.03 | 57 | 1014.8 |
| 20260503175221 | 16 | 196 | 27.4 | 48.3 | 0.00 | 0.03 | 0.03 | 58 | 1015.0 |
| 20260503174722 | 16 | 202 | 25.7 | 48.3 | 0.00 | 0.03 | 0.03 | 57 | 1015.1 |
| 20260503174221 | 16 | 201 | 24.1 | 45.1 | 0.00 | 0.03 | 0.03 | 60 | 1015.3 |
| 20260503173722 | 16 | 196 | 27.4 | 46.7 | 0.00 | 0.03 | 0.03 | 58 | 1015.4 |
| 20260503173223 | 16 | 198 | 29.0 | 48.3 | 0.00 | 0.03 | 0.03 | 59 | 1015.6 |
| 20260503172721 | 16 | 199 | 29.0 | 48.3 | 0.00 | 0.03 | 0.03 | 58 | 1015.8 |
| 20260503172221 | 16 | 208 | 25.7 | 45.1 | 0.00 | 0.03 | 0.03 | 58 | 1015.8 |
| 20260503171221 | 16 | 202 | 24.1 | 41.8 | 0.00 | 0.03 | 0.03 | 59 | 1016.1 |
| 20260503170721 | 16 | 203 | 24.1 | 41.8 | 0.00 | 0.03 | 0.03 | 58 | 1016.2 |
| 20260503170223 | 16 | 209 | 22.5 | 37.0 | 0.00 | 0.03 | 0.03 | 57 | 1016.4 |